Location: Unspecified
(27.9380°N, 0.0000°E)
Time: 00:44:57
(UTC+00:00)

SL-8 R/B - Visible Passes

Search period start: 04 April 2026 00:00
Search period end: 14 April 2026 00:00
Orbit: 910 x 935 km, 83.0° (Epoch: 29 March)

Date Brightness Start Highest point End Pass type
(mag) Time Alt. Az. Time Alt. Az. Time Alt. Az.
4 Apr 6.5 02:50:28 10° NNE 02:56:00 38° E 02:56:27 38° E visible
4 Apr 6.5 04:35:33 10° NW 04:39:51 21° W 04:39:53 21° W visible
5 Apr 6.0 02:59:40 10° N 03:04:49 52° NE 03:04:49 52° NE visible
5 Apr 7.0 04:46:12 10° NW 04:48:17 14° WNW 04:48:17 14° WNW visible
6 Apr 5.9 03:09:02 10° N 03:13:26 51° N 03:13:26 51° N visible
7 Apr 8.2 01:38:28 10° ENE 01:38:43 10° ENE 01:38:43 10° ENE visible
7 Apr 6.2 03:18:32 10° N 03:22:12 39° NNW 03:22:12 39° NNW visible
8 Apr 7.9 01:45:52 10° NE 01:47:35 14° NE 01:47:35 14° NE visible
8 Apr 6.6 03:28:11 10° NNW 03:31:04 28° NNW 03:31:04 28° NNW visible
9 Apr 7.7 01:54:25 10° NNE 01:56:32 18° NE 01:56:32 18° NE visible
9 Apr 7.0 03:38:00 10° NNW 03:40:02 20° NW 03:40:02 20° NW visible
10 Apr 7.5 02:03:21 10° NNE 02:05:33 21° NNE 02:05:33 21° NNE visible
10 Apr 7.3 03:48:02 10° NW 03:49:03 14° NW 03:49:03 14° NW visible
11 Apr 7.4 02:12:30 10° N 02:14:37 22° NNE 02:14:37 22° NNE visible
12 Apr 7.3 02:21:49 10° N 02:23:44 21° N 02:23:44 21° N visible
13 Apr 7.4 02:31:16 10° N 02:32:53 19° N 02:32:53 19° N visible
